• In Kazakhstan
  • List of Countries
  • For 7 days
  • Water Temperature
  • Satellite Maps
  • Weather Map
  • News
  • Weather Widgets
  • user-avatar
    Login

    Hourly Weather Jewłach

    Today, 22 October, Sunday

    Time Temperature Precipitation Wind Pressure Humidity
    00:00 +18°C° 0 mm 1 mps 759 mmHg 60%
    01:00 +18°C° 0 mm 1 mps 759 mmHg 59%
    02:00 +18°C° 0 mm 1 mps 759 mmHg 58%
    03:00 +16°C° 0 mm 1 mps 759 mmHg 57%
    04:00 +16°C° 0 mm 1 mps 759 mmHg 56%
    05:00 +16°C° 0 mm 2 mps 759 mmHg 55%
    06:00 +16°C° 0 mm 2 mps 759 mmHg 53%
    07:00 +17°C° 0 mm 2 mps 758 mmHg 48%
    08:00 +19°C° 0 mm 3 mps 758 mmHg 42%
    09:00 +20°C° 0 mm 3 mps 758 mmHg 37%
    10:00 +21°C° 0 mm 3 mps 757 mmHg 35%
    11:00 +22°C° 0 mm 4 mps 757 mmHg 32%
    12:00 +23°C° 0 mm 4 mps 756 mmHg 30%
    13:00 +25°C° 0 mm 4 mps 756 mmHg 30%
    14:00 +25°C° 0 mm 4 mps 756 mmHg 29%
    15:00 +25°C° 0 mm 4 mps 755 mmHg 29%
    16:00 +22°C° 0 mm 4 mps 756 mmHg 31%
    17:00 +21°C° 0 mm 3 mps 756 mmHg 34%
    18:00 +20°C° 0 mm 3 mps 756 mmHg 36%
    19:00 +19°C° 0 mm 3 mps 756 mmHg 36%
    20:00 +19°C° 0 mm 3 mps 756 mmHg 36%
    21:00 +18°C° 0 mm 3 mps 756 mmHg 36%
    22:00 +18°C° 0 mm 4 mps 756 mmHg 35%
    23:00 +18°C° 0 mm 4 mps 756 mmHg 34%

    Tomorrow, 23 October, Monday

    Time Temperature Precipitation Wind Pressure Humidity
    00:00 +18°C° 0 mm 4 mps 756 mmHg 33%
    01:00 +17°C° 0 mm 5 mps 757 mmHg 33%
    02:00 +16°C° 0 mm 5 mps 757 mmHg 33%
    03:00 +16°C° 0 mm 6 mps 757 mmHg 33%
    04:00 +16°C° 0 mm 6 mps 757 mmHg 35%
    05:00 +16°C° 0 mm 6 mps 758 mmHg 37%
    06:00 +16°C° 0 mm 6 mps 758 mmHg 39%
    07:00 +17°C° 0 mm 6 mps 759 mmHg 38%
    08:00 +19°C° 0 mm 6 mps 759 mmHg 36%
    09:00 +20°C° 0 mm 6 mps 759 mmHg 35%
    10:00 +21°C° 0 mm 6 mps 759 mmHg 34%
    11:00 +22°C° 0 mm 6 mps 760 mmHg 33%
    12:00 +23°C° 0 mm 5 mps 760 mmHg 33%
    13:00 +23°C° 0 mm 4 mps 760 mmHg 32%
    14:00 +25°C° 0 mm 3 mps 760 mmHg 31%
    15:00 +25°C° 0 mm 2 mps 760 mmHg 30%
    16:00 +24°C° 0 mm 2 mps 761 mmHg 34%
    17:00 +21°C° 0 mm 3 mps 762 mmHg 38%
    18:00 +20°C° 0 mm 3 mps 762 mmHg 42%
    19:00 +19°C° 0 mm 4 mps 763 mmHg 51%
    20:00 +17°C° 0 mm 5 mps 763 mmHg 60%
    21:00 +16°C° 0 mm 5 mps 764 mmHg 69%
    22:00 +15°C° 0 mm 5 mps 764 mmHg 70%
    23:00 +15°C° 0 mm 5 mps 764 mmHg 70%

    Day after tomorrow, 24 October, Tuesday

    Time Temperature Precipitation Wind Pressure Humidity
    00:00 +15°C° 0 mm 4 mps 764 mmHg 71%
    01:00 +15°C° 0 mm 4 mps 764 mmHg 71%
    02:00 +14°C° 0 mm 3 mps 764 mmHg 70%
    03:00 +15°C° 0 mm 2 mps 764 mmHg 70%
    04:00 +15°C° 0 mm 2 mps 764 mmHg 71%
    05:00 +15°C° 0 mm 1 mps 764 mmHg 72%
    06:00 +14°C° 0 mm 1 mps 764 mmHg 74%
    07:00 +15°C° 0 mm 1 mps 764 mmHg 71%
    08:00 +16°C° 0 mm 1 mps 764 mmHg 69%
    09:00 +16°C° 0 mm 1 mps 764 mmHg 66%
    10:00 +18°C° 0 mm 1 mps 764 mmHg 63%
    11:00 +19°C° 0 mm 1 mps 763 mmHg 60%
    12:00 +20°C° 0 mm 1 mps 763 mmHg 57%
    13:00 +20°C° 0 mm 1 mps 763 mmHg 56%
    14:00 +21°C° 0 mm 1 mps 762 mmHg 54%
    15:00 +21°C° 0 mm 1 mps 762 mmHg 53%
    16:00 +20°C° 0 mm 1 mps 763 mmHg 57%
    17:00 +19°C° 0 mm 1 mps 763 mmHg 61%
    18:00 +18°C° 0 mm 1 mps 764 mmHg 65%
    19:00 +17°C° 0 mm 2 mps 764 mmHg 67%
    20:00 +17°C° 0 mm 2 mps 764 mmHg 70%
    21:00 +16°C° 0 mm 2 mps 764 mmHg 72%
    22:00 +16°C° 0 mm 2 mps 764 mmHg 74%
    23:00 +15°C° 0 mm 2 mps 764 mmHg 77%

    25 October, Wednesday

    Time Temperature Precipitation Wind Pressure Humidity
    00:00 +15°C° 0 mm 1 mps 764 mmHg 79%
    01:00 +15°C° 0 mm 1 mps 764 mmHg 80%
    02:00 +15°C° 0 mm 1 mps 764 mmHg 81%
    03:00 +13°C° 0 mm 0 mps 764 mmHg 82%
    04:00 +14°C° 0 mm 1 mps 764 mmHg 82%
    05:00 +14°C° 0 mm 1 mps 764 mmHg 83%
    06:00 +14°C° 0 mm 1 mps 765 mmHg 84%
    07:00 +15°C° 0 mm 1 mps 765 mmHg 79%
    08:00 +16°C° 0 mm 1 mps 765 mmHg 74%
    09:00 +18°C° 0 mm 1 mps 765 mmHg 70%
    10:00 +20°C° 0 mm 1 mps 764 mmHg 63%
    11:00 +21°C° 0 mm 1 mps 764 mmHg 57%
    12:00 +22°C° 0 mm 1 mps 763 mmHg 51%
    13:00 +23°C° 0 mm 1 mps 763 mmHg 48%
    14:00 +23°C° 0 mm 1 mps 763 mmHg 45%
    15:00 +24°C° 0 mm 1 mps 762 mmHg 42%
    16:00 +22°C° 0 mm 1 mps 762 mmHg 46%
    17:00 +21°C° 0 mm 1 mps 763 mmHg 50%
    18:00 +20°C° 0 mm 1 mps 763 mmHg 53%
    19:00 +20°C° 0 mm 1 mps 763 mmHg 55%
    20:00 +19°C° 0 mm 1 mps 763 mmHg 56%
    21:00 +19°C° 0 mm 1 mps 763 mmHg 57%
    22:00 +19°C° 0 mm 1 mps 763 mmHg 57%
    23:00 +18°C° 0 mm 1 mps 763 mmHg 57%

    26 October, Thursday

    Time Temperature Precipitation Wind Pressure Humidity
    00:00 +18°C° 0 mm 1 mps 762 mmHg 57%
    01:00 +18°C° 0 mm 1 mps 762 mmHg 56%
    02:00 +17°C° 0 mm 2 mps 762 mmHg 54%
    03:00 +17°C° 0 mm 2 mps 761 mmHg 53%
    04:00 +17°C° 0 mm 3 mps 761 mmHg 51%
    05:00 +17°C° 0 mm 3 mps 761 mmHg 48%
    06:00 +17°C° 0 mm 3 mps 761 mmHg 46%
    07:00 +19°C° 0 mm 4 mps 761 mmHg 41%
    08:00 +20°C° 0 mm 4 mps 760 mmHg 35%
    09:00 +22°C° 0 mm 5 mps 760 mmHg 30%
    10:00 +25°C° 0 mm 5 mps 760 mmHg 28%
    11:00 +26°C° 0 mm 6 mps 760 mmHg 25%
    12:00 +28°C° 0 mm 6 mps 759 mmHg 22%
    13:00 +28°C° 0 mm 6 mps 759 mmHg 22%
    14:00 +28°C° 0 mm 6 mps 759 mmHg 22%
    15:00 +28°C° 0 mm 6 mps 759 mmHg 22%
    16:00 +27°C° 0 mm 5 mps 759 mmHg 24%
    17:00 +25°C° 0 mm 4 mps 759 mmHg 27%
    18:00 +22°C° 0 mm 3 mps 760 mmHg 30%
    19:00 +23°C° 0 mm 2 mps 760 mmHg 31%
    20:00 +21°C° 0 mm 2 mps 760 mmHg 32%
    21:00 +21°C° 0 mm 1 mps 760 mmHg 33%
    22:00 +20°C° 0 mm 2 mps 760 mmHg 36%
    23:00 +19°C° 0 mm 2 mps 760 mmHg 38%

    27 October, Friday

    Time Temperature Precipitation Wind Pressure Humidity
    00:00 +18°C° 0 mm 2 mps 760 mmHg 40%
    01:00 +18°C° 0 mm 2 mps 760 mmHg 45%
    02:00 +17°C° 0 mm 2 mps 761 mmHg 49%
    03:00 +16°C° 0 mm 2 mps 761 mmHg 53%
    04:00 +16°C° 0 mm 1 mps 761 mmHg 57%
    05:00 +16°C° 0 mm 1 mps 761 mmHg 61%
    06:00 +15°C° 0 mm 1 mps 761 mmHg 65%
    07:00 +16°C° 0 mm 1 mps 761 mmHg 64%
    08:00 +18°C° 0 mm 1 mps 761 mmHg 63%
    09:00 +19°C° 0 mm 1 mps 762 mmHg 62%
    10:00 +19°C° 0 mm 2 mps 761 mmHg 56%
    11:00 +20°C° 0 mm 2 mps 761 mmHg 51%
    12:00 +21°C° 0 mm 3 mps 761 mmHg 45%
    13:00 +22°C° 0 mm 3 mps 760 mmHg 42%
    14:00 +22°C° 0 mm 3 mps 760 mmHg 39%
    15:00 +22°C° 0 mm 4 mps 760 mmHg 36%
    16:00 +21°C° 0 mm 3 mps 761 mmHg 39%
    17:00 +20°C° 0 mm 3 mps 761 mmHg 42%
    18:00 +19°C° 0 mm 2 mps 762 mmHg 46%
    19:00 +18°C° 0 mm 2 mps 762 mmHg 50%
    20:00 +17°C° 0 mm 2 mps 762 mmHg 53%
    21:00 +17°C° 0 mm 2 mps 762 mmHg 57%
    22:00 +16°C° 0 mm 2 mps 762 mmHg 62%
    23:00 +15°C° 0 mm 2 mps 762 mmHg 66%
    Show more